BOTAN

Last updated on Sun Apr 12 2026 00:02:13 GMT+0000 (Coordinated Universal Time)

1 65943U 98067XQ 26101.38738694 .00841627 38529-3 10401-2 0 9991 2 65943 51.6156 245.3237 0010877 305.7032 54.2968 16.07145770 28701

Satellite not in orbit

BOTAN